Regional Weather Roundup
Issued by NWS Sterling, VA

Home | Current Version | Previous Version | Graphics & Text | Print | Product List | Glossary On
Versions: 1 2 3 4 5 6 7 8 9 10 11 12 13 14 15 16 17 18 19 20 21 22 23 24 25 26 27 28 29 30 31 32 33 34 35 36 37 38 39 40 41 42 43 44 45 46 47 48 49 50
000
ASUS41 KLWX 290610
RWRLWX

REGIONAL WEATHER ROUNDUP
NATIONAL WEATHER SERVICE BALTIMORE MD/WASHINGTON DC
100 AM EST THU JAN 29 2015

Note: "FAIR" indicates few or no clouds below 12,000 feet
with no significant weather and/or obstructions to visibility.
 TC=TEMPERATURE CELSIUS

 * =Non NWS site. Station does not report precipitation (e.g. rain,
    snow, etc.), thunder, or fog.

DCZ001-MDZ009-015-VAZ040>042-051-053>054-290700-
WASHINGTON METRO

CITY           SKY/WX    TMP DP  RH WIND       PRES   REMARKS
WASHINGTON NAT CLEAR     28   7  41 N6        30.35F
DULLES         CLEAR     21   9  59 N3        30.33F
ANDREWS AFB    CLEAR     25   7  46 NW5       30.32R
FT BELVOIR     CLEAR     25   7  46 NW2       30.35S
QUANTICO       CLEAR     25  15  66 NW6       30.36F
COLLEGE PARK*  CLEAR     23  14  68 CALM      30.34S
LEESBURG*      CLEAR     23  12  63 N5        30.34F
MANASSAS*      CLEAR     16  14  93 CALM      30.35F
GAITHERSBURG*  CLEAR     18   7  62 CALM      30.35F

$$

MDZ006>007-011-014-290700-
BALTIMORE METRO

CITY           SKY/WX    TMP DP  RH WIND       PRES   REMARKS
BWI AIRPORT    PTCLDY    23   7  50 W3        30.32F
MD SCIENCE CTR   N/A     28   4  35 MISG      30.32F
MARTIN STATE   CLEAR     27  12  54 CALM      30.35S
ANNAPOLIS      CLEAR     28   9  44 NW5       30.33S
FORT MEADE*    PTCLDY    18  12  79 CALM      30.35F

$$

MDZ012-015-019>023-290700-
MARYLAND EASTERN SHORE

CITY           SKY/WX    TMP DP  RH WIND       PRES   REMARKS
OCEAN CITY     CLEAR     25  10  53 NW7       30.30S
SALISBURY      CLEAR     26  12  55 NW5       30.31S
BAY BRIDGE AP*   N/A     30  10  43 NW8       30.34R WCI  23
CAMBRIDGE*     CLEAR     32  12  43 NW7       30.32S
EASTON*        CLEAR     26  16  64 NW3       30.36S

$$

MDZ017>025-290700-
SOUTHERN MARYLAND

CITY           SKY/WX    TMP DP  RH WIND       PRES   REMARKS
PATUXENT RIVER CLEAR     28  10  46 NW10      30.33S WCI  19
ST INIGOES     CLEAR     28   6  39 CALM      30.33S
LEONARDTOWN*   CLEAR     25   9  50 CALM      30.34F

$$

MDZ003>005-290700-
NORTH CENTRAL MARYLAND

CITY           SKY/WX    TMP DP  RH WIND       PRES   REMARKS
FREDERICK*     CLEAR     16  10  79 CALM      30.36F
HAGERSTOWN APT PTCLDY    18   6  59 SE5       30.31F
WESTMINSTER*   PTCLDY    21   3  45 CALM      30.29F

$$

MDZ501>502-290700-
WESTERN MARYLAND

CITY           SKY/WX    TMP DP  RH WIND       PRES   REMARKS
OAKLAND*       PTCLDY    19  -4  35 SE7       30.14F
CUMBERLAND*    PTCLDY    16  12  86 CALM      30.36F

$$

VAZ025>031-290700-
SHENANDOAH VALLEY

CITY           SKY/WX    TMP DP  RH WIND       PRES   REMARKS
WINCHESTER*    PTCLDY    19   7  58 CALM      30.32S
FRONT ROYAL*   FAIR      18  14  86 CALM      30.30F
LURAY*         FAIR      21  18  86 CALM      30.30F
NEW MARKET*    FAIR      15  12  86 CALM      30.30F
STAUNTON*      CLEAR     17  12  80 CALM      30.30F
WAYNESBORO*    FAIR      20   9  63 SW3       30.27F

$$

WVZ021-048>050-054>055-290700-
EASTERN WEST VIRGINIA PANHANDLE

CITY           SKY/WX    TMP DP  RH WIND       PRES   REMARKS
MARTINSBURG    PTCLDY    13   4  67 CALM      30.33S
PETERSBURG*    PTCLDY    14  11  88 CALM      30.31F

$$

VAZ036>039-050-290700-
CENTRAL FOOTHILLS

CITY           SKY/WX    TMP DP  RH WIND       PRES   REMARKS
CHARLOTTESVILL CLEAR     24   6  46 CALM      30.31F
CULPEPER*      CLEAR     18  12  79 CALM      30.34S
ORANGE*        CLEAR     19  16  86 CALM      30.34F
GORDONSVILLE*  FAIR      17  14  86 CALM      30.33S
WARRENTON*     FAIR      17  17 100 CALM      30.33S

$$

VAZ055>057-290700-
NORTH AND CENTRAL PIEDMONT

CITY           SKY/WX    TMP DP  RH WIND       PRES   REMARKS
FREDERICKSBRG* CLEAR     24  14  67 CALM      30.34F
STAFFORD*      CLEAR     22   9  57 CALM      30.38F

$$

NCZ024-NYZ072-PAZ021-071-VAZ022-071-290700-
OTHER REGIONAL OBSERVATIONS

CITY           SKY/WX    TMP DP  RH WIND       PRES   REMARKS
NEW YORK CITY  CLEAR     24   1  36 MISG      30.30R
PHILADELPHIA   CLEAR     26   3  37 N7        30.31S
PITTSBURGH     CLOUDY    16  11  80 SE6       30.21F
ROANOKE        CLEAR     24  14  65 CALM      30.32F
RICHMOND       CLEAR     25  11  55 N6        30.34S
RALEIGH        PTCLDY    25  15  66 CALM      30.33S

$$

ANZ530>537-290700-
MARINE OBSERVATIONS

STATION/POSITION TIME  TEMP    WIND        PRES
                       AIR SEA DIR/SP/G
                 (UTC) (F)     (DEG/KT/KT) (MB)
THOMAS PT LIGHT  0600   28 36  320/ 10/ 12 1028.0S
BALT KEY BRIDGE  0600   29     280/  7/  9 1027.1S
COVE POINT       0600   31     350/ 16/ 18 1026.7S
LEWISETTA        0600   32 36  350/  8/ 10 1026.9F
SOLOMONS ISLAND  0600      37                N/A
PINEY POINT      0600          350/ 13/ 14   N/A

$$



USA.gov is the U.S. government's official web portal to all federal, state and local government web resources and services.